SNUSAT-1B (42727 NORAD) Tracking and Keplerian Element Data

This shows tracking and keplerian element data for the satellite.

Feedback or suggestion? Click here.




ElementValue
Catalog42727
NameSNUSAT-1B
Epoch Orbit10586
Epoch Day89.91797841
Epoch Year2019
RAAN308.8243
Inclination51.6087
Eccentricity0.0009316
Argument of Perigee268.9251
Mean Anonmoly91.0707
Mean Motion16.3798046
Decay Rate0.06519165
L11 42727U 98067MG 19089.91797841 .06519165 12339-4 59073-3 0 9997
L22 42727 51.6087 308.8243 0009316 268.9251 91.0707 16.37980460105869



Live tracking and technical data element details for SNUSAT-1B (NORAD 42727). SNUSAT-1B can be tracked NOW for your location showing map with azimuth and elevation plus other details from your city location.







IsCatalogInMostPopularTable: catalog: 42727, numindb: 629
Update: records affected: 1



GetName: 42727 SNUSAT-1B

Hit Count: updated at: Fri, 02 Dec 2022 13:56:02 GMT